West Memphis, AR

3:29 AM CDT on October 17, 2019 (GMT -0500)
West Memphis Municipal

Weather History for KAWM - August, 2019

Change the Weather History Date:

Saturday, August 24, 2019

  Actual Average Record
Temperature  
Mean Temperature 82 °F -  
Max Temperature 89 °F 89 °F 99 °F (1983)
Min Temperature 75 °F 68 °F 58 °F (1984)
Cooling Degree Days 17    
Growing Degree Days 32 (Base 50)    
Moisture  
Dew Point 76 °F    
Average Humidity 87    
Maximum Humidity 96    
Minimum Humidity 65    
Precipitation  
Precipitation 0.04 in - - ()
Sea Level Pressure  
Sea Level Pressure 29.98 in    
Wind  
Wind Speed 5 mph (ENE)    
Max Wind Speed 13 mph    
Max Gust Speed -    
Visibility 8 miles    
Events Rain , Thunderstorm    
Averages and records for this station are not official NWS values.
T = Trace of Precipitation, MM = Missing Value Source: NWS Daily Summary

Daily Weather History Graph

Daily Weather History Graph

Search for Another Location

Airport or City:

Astronomy

Aug. 24, 2019 Rise Set
Actual Time 6:27 AM CDT 7:38 PM CDT
Civil Twilight 6:01 AM CDT 8:04 PM CDT
Nautical Twilight 5:29 AM CDT 8:36 PM CDT
Astronomical Twilight 4:57 AM CDT 9:08 PM CDT
Moon 12:25 AM CDT (8/24) 2:48 PM CDT (8/24)
Length of Visible Light 14h 03m
Length of Day
13h 11m
Last Quarter, 39% of the Moon is Illuminated
Aug 24
Last Quarter
Aug 30
New
Sep 5
First Quarter
Sep 13
Full
Sep 21
Last Quarter

Hourly Weather History & Observations

Time (CDT) Temp. Heat Index Dew Point Humidity Pressure Visibility Wind Dir Wind Speed Gust Speed Precip Events Conditions
12:40 AM 77.0 °F - 75.9 °F 96% 30.00 in 10.0 mi South 4.6 mph - N/A   Mostly Cloudy
12:53 AM 77.0 °F - 75.9 °F 96% 29.98 in 10.0 mi SSE 3.5 mph - N/A   Overcast
1:05 AM 78.1 °F - 75.9 °F 93% 30.00 in 10.0 mi Calm Calm - N/A   Overcast
1:23 AM 78.1 °F - 75.0 °F 90% 30.00 in 10.0 mi NE 3.5 mph - N/A   Mostly Cloudy
1:53 AM 77.0 °F - 75.0 °F 94% 29.97 in 10.0 mi ENE 5.8 mph - N/A   Clear
2:53 AM 75.9 °F - 73.9 °F 94% 29.98 in 10.0 mi ENE 6.9 mph - N/A   Partly Cloudy
3:53 AM 75.9 °F - 73.9 °F 94% 29.99 in 9.0 mi NE 5.8 mph - N/A   Clear
4:53 AM 75.0 °F - 73.9 °F 96% 29.99 in 9.0 mi Calm Calm - N/A   Partly Cloudy
5:51 AM 75.2 °F - 73.4 °F 94% 30.01 in 9.0 mi East 4.6 mph - N/A   Mostly Cloudy
5:53 AM 75.9 °F - 73.9 °F 94% 30.00 in 9.0 mi East 4.6 mph - N/A   Mostly Cloudy
6:00 AM 75.9 °F - 73.9 °F 94% 30.01 in 10.0 mi East 4.6 mph - N/A   Mostly Cloudy
6:53 AM 75.9 °F - 73.9 °F 94% 30.01 in 9.0 mi East 6.9 mph - N/A   Overcast
7:09 AM 75.9 °F - 73.0 °F 91% 30.03 in 10.0 mi East 6.9 mph - N/A   Mostly Cloudy
7:25 AM 77.0 °F - 73.9 °F 90% 30.03 in 10.0 mi East 6.9 mph - N/A   Overcast
7:36 AM 77.0 °F - 73.9 °F 90% 30.03 in 10.0 mi East 8.1 mph - N/A   Overcast
7:53 AM 77.0 °F - 73.0 °F 88% 30.01 in 8.0 mi ESE 8.1 mph - 0.00 in Rain Light Rain
8:53 AM 78.1 °F - 73.9 °F 87% 30.01 in 10.0 mi ESE 3.5 mph - 0.00 in   Overcast
9:53 AM 81.0 °F 86.2 °F 73.9 °F 79% 30.01 in 10.0 mi East 5.8 mph - N/A   Mostly Cloudy
10:04 AM 82.0 °F 87.9 °F 73.9 °F 76% 30.03 in 10.0 mi ENE 5.8 mph - N/A   Mostly Cloudy
10:53 AM 84.0 °F 91.2 °F 73.9 °F 72% 30.01 in 10.0 mi NE 3.5 mph - N/A   Mostly Cloudy
11:53 AM 82.9 °F 90.8 °F 75.9 °F 79% 30.01 in 9.0 mi Variable 3.5 mph - 0.00 in Rain Light Rain
12:53 PM 84.9 °F 93.3 °F 75.0 °F 72% 30.00 in 10.0 mi Calm Calm - 0.00 in   Overcast
1:18 PM 87.1 °F 96.3 °F 75.0 °F 67% 30.00 in 10.0 mi Calm Calm - N/A   Overcast
1:53 PM 89.1 °F 100.2 °F 75.9 °F 65% 29.97 in 10.0 mi NE 6.9 mph - N/A   Mostly Cloudy
2:01 PM 88.0 °F 98.5 °F 75.9 °F 67% 29.98 in 10.0 mi NNE 8.1 mph - N/A   Mostly Cloudy
2:38 PM 88.0 °F 100.2 °F 77.0 °F 70% 29.97 in 10.0 mi North 9.2 mph - N/A   Mostly Cloudy
2:53 PM 89.1 °F 103.2 °F 78.1 °F 70% 29.96 in 10.0 mi NNE 10.4 mph - N/A   Mostly Cloudy
3:32 PM 84.9 °F 94.1 °F 75.9 °F 74% 29.96 in 9.0 mi NNE 9.2 mph - N/A Thunderstorm Mostly Cloudy
3:43 PM 84.9 °F 94.1 °F 75.9 °F 74% 29.96 in 9.0 mi North 6.9 mph - 0.00 in Rain , Thunderstorm Light Rain
3:50 PM 84.2 °F 94.1 °F 77.0 °F 79% 29.96 in 2.5 mi NNE 8.1 mph - 0.00 in Rain , Thunderstorm Rain
3:53 PM 82.0 °F 90.2 °F 77.0 °F 85% 29.94 in 1.8 mi NE 12.7 mph - 0.00 in Rain , Thunderstorm Heavy Rain
4:00 PM 81.0 °F 87.9 °F 77.0 °F 88% 29.95 in 3.0 mi NNE 8.1 mph - 0.01 in Rain , Thunderstorm Light Rain
4:09 PM 81.0 °F 87.9 °F 77.0 °F 88% 29.96 in 7.0 mi North 4.6 mph - 0.01 in Rain Light Rain
4:21 PM 82.0 °F 91.0 °F 78.1 °F 88% 29.96 in 5.0 mi ENE 4.6 mph - 0.01 in Rain , Thunderstorm Light Rain
4:25 PM 81.0 °F 88.6 °F 78.1 °F 91% 29.96 in 1.8 mi Variable 3.5 mph - 0.01 in Rain , Thunderstorm Heavy Rain
4:29 PM 80.1 °F 86.4 °F 78.1 °F 94% 29.96 in 0.8 mi North - - 0.01 in Rain , Thunderstorm Heavy Rain
4:34 PM 80.1 °F 86.4 °F 78.1 °F 94% 29.96 in 0.8 mi ESE 10.4 mph - 0.01 in Rain , Thunderstorm Heavy Thunderstorms and Rain
4:44 PM 77.0 °F - 75.9 °F 96% 29.95 in 1.5 mi East 10.4 mph - 0.01 in Rain , Thunderstorm Thunderstorms and Rain
4:53 PM 75.9 °F - 73.9 °F 94% 29.94 in 2.0 mi East 3.5 mph - 0.02 in Rain , Thunderstorm Light Thunderstorms and Rain
4:57 PM 77.0 °F - 73.9 °F 90% 29.95 in 3.0 mi East 5.8 mph - 0.00 in Rain Light Rain
5:53 PM 81.0 °F 88.6 °F 78.1 °F 91% 29.93 in 8.0 mi NNE 4.6 mph - 0.01 in   Scattered Clouds
6:34 PM 81.0 °F 87.9 °F 77.0 °F 88% 29.96 in 8.0 mi ENE 6.9 mph - 0.01 in   Mostly Cloudy
6:48 PM 80.6 °F 87.1 °F 77.0 °F 89% 29.96 in 8.0 mi ENE 8.1 mph - 0.01 in   Overcast
6:53 PM 80.1 °F 85.8 °F 77.0 °F 90% 29.95 in 8.0 mi NE 6.9 mph - 0.01 in   Overcast
7:53 PM 79.0 °F - 75.9 °F 90% 29.97 in 9.0 mi Calm Calm - N/A   Overcast
8:53 PM 79.0 °F - 75.9 °F 90% 29.97 in 9.0 mi NE 3.5 mph - N/A   Overcast
9:53 PM 78.1 °F - 75.9 °F 93% 29.97 in 8.0 mi Calm Calm - N/A   Partly Cloudy
10:53 PM 78.1 °F - 75.9 °F 93% 29.98 in 7.0 mi Calm Calm - N/A   Overcast
11:39 PM 78.1 °F - 75.9 °F 93% 30.00 in 9.0 mi SSE 4.6 mph - N/A   Overcast
11:53 PM 78.1 °F - 75.9 °F 93% 29.99 in 8.0 mi SSE 5.8 mph - N/A   Mostly Cloudy